• în România
  • Lista ţărilor
  • Pe 7 zile
  • Temperatura apei
  • Hartă satelitară
  • Meteo pe hartă
  • Widget-uri
  • user-avatar
    Intrare

    Meteo pe oră la Hasselt

    Astăzi, 19 Septembrie, Miercuri

    Timp Temperatura Precipitaţii Vânt Presiune Umiditate
    00:00 +18°C° 0 mm 1 m/s 759 mmHg 88%
    01:00 +17°C° 0 mm 2 m/s 759 mmHg 89%
    02:00 +17°C° 0 mm 2 m/s 759 mmHg 89%
    03:00 +16°C° 0 mm 2 m/s 759 mmHg 90%
    04:00 +17°C° 0 mm 2 m/s 759 mmHg 89%
    05:00 +17°C° 0 mm 3 m/s 759 mmHg 88%
    06:00 +17°C° 0 mm 3 m/s 759 mmHg 87%
    07:00 +19°C° 0 mm 4 m/s 759 mmHg 80%
    08:00 +21°C° 0 mm 5 m/s 759 mmHg 73%
    09:00 +23°C° 0 mm 6 m/s 759 mmHg 67%
    10:00 +24°C° 0 mm 6 m/s 759 mmHg 62%
    11:00 +26°C° 0 mm 6 m/s 759 mmHg 58%
    12:00 +26°C° 0 mm 6 m/s 759 mmHg 54%
    13:00 +26°C° 0 mm 6 m/s 759 mmHg 54%
    14:00 +26°C° 0 mm 6 m/s 759 mmHg 53%
    15:00 +26°C° 0 mm 6 m/s 759 mmHg 53%
    16:00 +25°C° 0 mm 5 m/s 759 mmHg 58%
    17:00 +22°C° 0 mm 4 m/s 759 mmHg 64%
    18:00 +21°C° 0 mm 3 m/s 759 mmHg 70%
    19:00 +20°C° 0 mm 3 m/s 759 mmHg 73%
    20:00 +19°C° 0 mm 3 m/s 760 mmHg 76%
    21:00 +18°C° 0 mm 3 m/s 760 mmHg 79%
    22:00 +18°C° 0 mm 3 m/s 760 mmHg 80%
    23:00 +18°C° 0 mm 3 m/s 760 mmHg 82%

    Mâine, 20 Septembrie, Joi

    Timp Temperatura Precipitaţii Vânt Presiune Umiditate
    00:00 +17°C° 0 mm 3 m/s 760 mmHg 83%
    01:00 +17°C° 0 mm 3 m/s 760 mmHg 85%
    02:00 +17°C° 0 mm 3 m/s 760 mmHg 87%
    03:00 +16°C° 0 mm 3 m/s 760 mmHg 89%
    04:00 +16°C° 0 mm 3 m/s 760 mmHg 90%
    05:00 +16°C° 0 mm 3 m/s 760 mmHg 90%
    06:00 +16°C° 0 mm 3 m/s 760 mmHg 90%
    07:00 +18°C° 0 mm 4 m/s 760 mmHg 83%
    08:00 +20°C° 0 mm 5 m/s 760 mmHg 76%
    09:00 +22°C° 0 mm 5 m/s 760 mmHg 68%
    10:00 +23°C° 0 mm 5 m/s 760 mmHg 64%
    11:00 +25°C° 0 mm 5 m/s 759 mmHg 60%
    12:00 +26°C° 0 mm 6 m/s 759 mmHg 56%
    13:00 +26°C° 0 mm 5 m/s 758 mmHg 55%
    14:00 +26°C° 0 mm 5 m/s 758 mmHg 54%
    15:00 +26°C° 0 mm 5 m/s 757 mmHg 53%
    16:00 +25°C° 0 mm 4 m/s 757 mmHg 58%
    17:00 +22°C° 0 mm 4 m/s 756 mmHg 64%
    18:00 +21°C° 0 mm 3 m/s 756 mmHg 69%
    19:00 +21°C° 0 mm 3 m/s 755 mmHg 67%
    20:00 +21°C° 0 mm 4 m/s 755 mmHg 65%
    21:00 +21°C° 0 mm 4 m/s 755 mmHg 63%
    22:00 +21°C° 0 mm 5 m/s 754 mmHg 60%
    23:00 +21°C° 0 mm 5 m/s 753 mmHg 56%

    Poimâine, 21 Septembrie, Vineri

    Timp Temperatura Precipitaţii Vânt Presiune Umiditate
    00:00 +22°C° 0 mm 6 m/s 753 mmHg 53%
    01:00 +22°C° 0 mm 6 m/s 752 mmHg 53%
    02:00 +22°C° 0 mm 7 m/s 751 mmHg 53%
    03:00 +21°C° 0 mm 7 m/s 751 mmHg 53%
    04:00 +21°C° 0.1 mm 7 m/s 751 mmHg 56%
    05:00 +21°C° 0.1 mm 8 m/s 750 mmHg 59%
    06:00 +21°C° 0.1 mm 9 m/s 750 mmHg 62%
    07:00 +18°C° 0.7 mm 8 m/s 751 mmHg 67%
    08:00 +17°C° 0.7 mm 7 m/s 752 mmHg 72%
    09:00 +15°C° 0.7 mm 7 m/s 753 mmHg 77%
    10:00 +16°C° 0.1 mm 7 m/s 754 mmHg 69%
    11:00 +16°C° 0.1 mm 7 m/s 754 mmHg 60%
    12:00 +16°C° 0.1 mm 7 m/s 755 mmHg 51%
    13:00 +17°C° 0 mm 7 m/s 756 mmHg 48%
    14:00 +17°C° 0 mm 7 m/s 756 mmHg 46%
    15:00 +17°C° 0 mm 7 m/s 756 mmHg 43%
    16:00 +16°C° 0 mm 6 m/s 757 mmHg 47%
    17:00 +15°C° 0 mm 6 m/s 757 mmHg 51%
    18:00 +14°C° 0 mm 5 m/s 758 mmHg 54%
    19:00 +13°C° 0 mm 5 m/s 758 mmHg 57%
    20:00 +13°C° 0 mm 5 m/s 759 mmHg 59%
    21:00 +12°C° 0 mm 5 m/s 760 mmHg 62%
    22:00 +12°C° 0 mm 5 m/s 760 mmHg 64%
    23:00 +12°C° 0 mm 5 m/s 760 mmHg 67%

    22 Septembrie, Sâmbătă

    Timp Temperatura Precipitaţii Vânt Presiune Umiditate
    00:00 +10°C° 0 mm 5 m/s 761 mmHg 69%
    01:00 +11°C° 0 mm 4 m/s 761 mmHg 72%
    02:00 +11°C° 0 mm 4 m/s 761 mmHg 74%
    03:00 +10°C° 0 mm 4 m/s 762 mmHg 76%
    04:00 +10°C° 0 mm 4 m/s 762 mmHg 77%
    05:00 +10°C° 0 mm 4 m/s 762 mmHg 79%
    06:00 +8°C° 0 mm 4 m/s 763 mmHg 81%
    07:00 +11°C° 0 mm 4 m/s 763 mmHg 73%
    08:00 +13°C° 0 mm 5 m/s 763 mmHg 66%
    09:00 +15°C° 0 mm 5 m/s 763 mmHg 58%
    10:00 +15°C° 0.1 mm 5 m/s 763 mmHg 56%
    11:00 +16°C° 0.1 mm 5 m/s 763 mmHg 54%
    12:00 +16°C° 0.1 mm 5 m/s 763 mmHg 52%
    13:00 +16°C° 0.1 mm 5 m/s 763 mmHg 52%
    14:00 +16°C° 0.1 mm 5 m/s 763 mmHg 51%
    15:00 +17°C° 0.1 mm 4 m/s 763 mmHg 51%
    16:00 +16°C° 0 mm 3 m/s 764 mmHg 56%
    17:00 +13°C° 0 mm 3 m/s 764 mmHg 61%
    18:00 +13°C° 0 mm 2 m/s 764 mmHg 66%
    19:00 +12°C° 0 mm 1 m/s 764 mmHg 67%
    20:00 +12°C° 0 mm 1 m/s 764 mmHg 69%
    21:00 +11°C° 0 mm 1 m/s 764 mmHg 71%
    22:00 +11°C° 0 mm 1 m/s 764 mmHg 71%
    23:00 +12°C° 0 mm 1 m/s 764 mmHg 70%

    23 Septembrie, Duminică

    Timp Temperatura Precipitaţii Vânt Presiune Umiditate
    00:00 +12°C° 0 mm 2 m/s 764 mmHg 70%
    01:00 +12°C° 0.1 mm 2 m/s 763 mmHg 73%
    02:00 +12°C° 0.1 mm 2 m/s 762 mmHg 75%
    03:00 +11°C° 0.1 mm 3 m/s 761 mmHg 78%
    04:00 +11°C° 0.4 mm 4 m/s 760 mmHg 80%
    05:00 +11°C° 0.4 mm 4 m/s 759 mmHg 82%
    06:00 +10°C° 0.4 mm 5 m/s 758 mmHg 83%
    07:00 +11°C° 0.2 mm 6 m/s 757 mmHg 79%
    08:00 +12°C° 0.2 mm 7 m/s 755 mmHg 74%
    09:00 +12°C° 0.2 mm 8 m/s 754 mmHg 70%
    10:00 +15°C° 0.3 mm 9 m/s 752 mmHg 67%
    11:00 +17°C° 0.3 mm 10 m/s 750 mmHg 64%
    12:00 +19°C° 0.3 mm 11 m/s 748 mmHg 61%
    13:00 +21°C° 0.2 mm 11 m/s 747 mmHg 61%
    14:00 +22°C° 0.2 mm 11 m/s 745 mmHg 62%
    15:00 +23°C° 0.2 mm 11 m/s 743 mmHg 62%
    16:00 +21°C° 0.6 mm 12 m/s 742 mmHg 63%
    17:00 +18°C° 0.6 mm 12 m/s 742 mmHg 65%
    18:00 +15°C° 0.6 mm 12 m/s 741 mmHg 66%
    19:00 +14°C° 0.2 mm 13 m/s 741 mmHg 69%
    20:00 +13°C° 0.2 mm 13 m/s 740 mmHg 71%
    21:00 +12°C° 0.2 mm 13 m/s 740 mmHg 73%
    22:00 +13°C° 0.5 mm 13 m/s 741 mmHg 76%
    23:00 +13°C° 0.5 mm 13 m/s 743 mmHg 79%

    24 Septembrie, Luni

    Timp Temperatura Precipitaţii Vânt Presiune Umiditate
    00:00 +14°C° 0.5 mm 12 m/s 744 mmHg 82%
    01:00 +13°C° 0.3 mm 12 m/s 747 mmHg 79%
    02:00 +12°C° 0.3 mm 11 m/s 751 mmHg 75%
    03:00 +12°C° 0.3 mm 11 m/s 754 mmHg 72%
    04:00 +11°C° 0.1 mm 10 m/s 756 mmHg 71%
    05:00 +11°C° 0.1 mm 8 m/s 759 mmHg 70%
    06:00 +11°C° 0.1 mm 7 m/s 761 mmHg 69%
    07:00 +12°C° 0.1 mm 7 m/s 762 mmHg 66%
    08:00 +12°C° 0.1 mm 8 m/s 763 mmHg 62%
    09:00 +13°C° 0.1 mm 8 m/s 765 mmHg 58%
    10:00 +13°C° 0.1 mm 8 m/s 766 mmHg 58%
    11:00 +13°C° 0.1 mm 8 m/s 767 mmHg 57%
    12:00 +14°C° 0.1 mm 7 m/s 768 mmHg 56%
    13:00 +14°C° 0.1 mm 7 m/s 768 mmHg 56%
    14:00 +14°C° 0.1 mm 7 m/s 769 mmHg 55%
    15:00 +14°C° 0.1 mm 7 m/s 769 mmHg 54%
    16:00 +13°C° 0 mm 6 m/s 770 mmHg 58%
    17:00 +12°C° 0 mm 4 m/s 770 mmHg 61%
    18:00 +11°C° 0 mm 3 m/s 771 mmHg 64%
    19:00 +10°C° 0 mm 3 m/s 771 mmHg 67%
    20:00 +9°C° 0 mm 2 m/s 772 mmHg 70%
    21:00 +10°C° 0 mm 1 m/s 773 mmHg 73%
    22:00 +10°C° 0 mm 1 m/s 773 mmHg 74%
    23:00 +9°C° 0 mm 1 m/s 773 mmHg 75%
    Arată mai mult